Location: T. Spence Memorial Observatory
(32.7356°N, 82.2098°W)
Time: 17:44:47
(UTC-04:00)

Cosmos 2219 - Visible Passes

Search period start: 18 September 2014 00:00
Search period end: 28 September 2014 00:00
Orbit: 835 x 859 km, 71.1° (Epoch: 18 September)

Date Brightness Start Highest point End Pass type
(mag) Time Alt. Az. Time Alt. Az. Time Alt. Az.
18 Sep 5.0 19:51:44 10° NNE 19:54:12 13° NE 19:56:40 10° E visible
18 Sep 3.2 21:33:20 10° NNW 21:38:56 75° WSW 21:39:47 62° SSW visible
19 Sep 3.2 21:19:59 10° NNW 21:25:36 77° WSW 21:27:29 43° S visible
20 Sep 3.2 21:06:39 10° NNW 21:12:15 79° WSW 21:15:22 28° SSE visible
21 Sep 3.2 20:53:18 10° NNW 20:58:55 81° WSW 21:03:27 16° SSE visible
22 Sep 3.2 20:39:58 10° NNW 20:45:35 83° WSW 20:51:11 10° SSE visible
23 Sep 3.2 20:26:37 10° NNW 20:32:14 85° WSW 20:37:51 10° SSE visible
24 Sep 3.2 20:13:16 10° NNW 20:18:54 87° WSW 20:24:31 10° SSE visible
25 Sep 3.2 19:59:55 10° NNW 20:05:33 89° WSW 20:11:10 10° SSE visible
26 Sep 3.2 19:46:35 10° NNW 19:52:13 89° ENE 19:57:50 10° SSE visible
27 Sep 3.2 19:33:14 10° NNW 19:38:52 87° ENE 19:44:29 10° SSE visible
